星网(HULIANWANG DIGUI-49)

导读 | 豆包AI

"HULIANWANG DIGUI-49"是中国于2025年8月4日发射的卫星,归属"互联网星座"范畴。中国航天近年来在低轨卫星互联网领域加速布局,批量发射组网卫星,逐步构建全球覆盖的天地一体化信息网络。该卫星将与同星座其他卫星协同,为全球用户提供泛在互联、低延迟的通信网络服务,助力空间信息基础设施建设。

Basic Information
目录编号:
65106
目录名称:
HULIANWANG DIGUI-49
国际标识:
2025-168A
轨道中心:
EARTH
卫星名称:
星网
卫星全名:
星网(HULIANWANG DIGUI-49)
卫星状态:
在轨 (已飞行222 天)
发射日期:
2025-08-04 UTC
国别 :
中国 (CN)
星等 :
--
Orbit Information
数据来源 国际轨道数据 AOE轨道数据
星历时间 2026-03-13T22:35:29+0800
10小时前
查看轨道信息
2026-03-07T23:00:00+0800
6天前
查看轨道信息
半长轴 7527.391km 7527.406km
偏心率 0.0007467 0.0007771
轨道倾角 50.004° 50.005°
近地点辐角 176.242° 164.722°
升交点赤经 308.772° 330.228°
平近点角 183.851° 345.361°
近地点 1143.633km 1143.419km
远地点 1154.875km 1155.119km
周期 108.324分钟 108.325分钟
每日圈数 13.2934 13.293361
Detailed Information
使用方式:
暂无
2D Orbit Map
3D Orbit Map
Orbit Altitude Analysis Chart
Orbit Inclination Analysis Chart
Orbit Comprehensive Analysis Chart
View Comprehensive Chart